When you browse on this site, cookies collect data to enhance your experience and personalize the content and advertising you see.
Visit our Privacy Policy to learn more. By continuing to use the site, you agree to this use of cookies and data.
  • In France
  • List of Countries
  • For 7 days
  • Water Temperature
  • Weather Map
  • Weather Widgets
  • user-avatar
    Login

    Hourly Weather Bunia

    Today, 27 May, Wednesday

    Time Temperature Precipitation Wind Pressure Humidity
    00:00 +20°C° 0 mm 1 mps 656 mmHg 90%
    01:00 +18°C° 0 mm 0 mps 655 mmHg 90%
    02:00 +17°C° 0 mm 0 mps 655 mmHg 90%
    03:00 +17°C° 0 mm 0 mps 655 mmHg 90%
    04:00 +17°C° 0 mm 0 mps 655 mmHg 90%
    05:00 +17°C° 0 mm 0 mps 655 mmHg 90%
    06:00 +19°C° 0 mm 0 mps 656 mmHg 85%
    07:00 +20°C° 0 mm 0 mps 657 mmHg 81%
    08:00 +22°C° 0 mm 0 mps 658 mmHg 76%
    09:00 +25°C° 0.3 mm 1 mps 658 mmHg 72%
    10:00 +27°C° 0.3 mm 1 mps 658 mmHg 68%
    11:00 +28°C° 0.3 mm 1 mps 658 mmHg 63%
    12:00 +29°C° 0.2 mm 2 mps 657 mmHg 59%
    13:00 +29°C° 0.2 mm 2 mps 657 mmHg 54%
    14:00 +30°C° 0.2 mm 2 mps 656 mmHg 50%
    15:00 +29°C° 0 mm 2 mps 656 mmHg 55%
    16:00 +28°C° 0 mm 1 mps 655 mmHg 60%
    17:00 +28°C° 0 mm 1 mps 655 mmHg 65%
    18:00 +26°C° 0.1 mm 1 mps 655 mmHg 69%
    19:00 +24°C° 0.1 mm 1 mps 655 mmHg 73%
    20:00 +22°C° 0.1 mm 1 mps 655 mmHg 77%
    21:00 +22°C° 0 mm 1 mps 655 mmHg 78%
    22:00 +21°C° 0 mm 1 mps 656 mmHg 79%
    23:00 +21°C° 0 mm 1 mps 656 mmHg 80%

    Tomorrow, 28 May, Thursday

    Time Temperature Precipitation Wind Pressure Humidity
    00:00 +21°C° 0 mm 1 mps 655 mmHg 83%
    01:00 +20°C° 0 mm 1 mps 655 mmHg 85%
    02:00 +20°C° 0 mm 1 mps 655 mmHg 87%
    03:00 +20°C° 0 mm 1 mps 655 mmHg 89%
    04:00 +20°C° 0 mm 1 mps 655 mmHg 91%
    05:00 +20°C° 0 mm 1 mps 655 mmHg 92%
    06:00 +21°C° 0 mm 1 mps 656 mmHg 86%
    07:00 +23°C° 0 mm 1 mps 657 mmHg 81%
    08:00 +24°C° 0 mm 1 mps 658 mmHg 75%
    09:00 +26°C° 0.1 mm 2 mps 657 mmHg 68%
    10:00 +27°C° 0.1 mm 2 mps 657 mmHg 60%
    11:00 +29°C° 0.1 mm 3 mps 657 mmHg 53%
    12:00 +29°C° 0 mm 3 mps 657 mmHg 52%
    13:00 +29°C° 0 mm 3 mps 656 mmHg 51%
    14:00 +30°C° 0 mm 3 mps 656 mmHg 50%
    15:00 +29°C° 0.1 mm 3 mps 655 mmHg 56%
    16:00 +28°C° 0.1 mm 2 mps 655 mmHg 61%
    17:00 +27°C° 0.1 mm 2 mps 654 mmHg 67%
    18:00 +25°C° 0.1 mm 2 mps 654 mmHg 72%
    19:00 +23°C° 0.1 mm 2 mps 655 mmHg 77%
    20:00 +21°C° 0.1 mm 2 mps 655 mmHg 82%
    21:00 +21°C° 0.1 mm 2 mps 655 mmHg 83%
    22:00 +21°C° 0.1 mm 2 mps 655 mmHg 83%
    23:00 +20°C° 0.1 mm 2 mps 655 mmHg 84%

    Day after tomorrow, 29 May, Friday

    Time Temperature Precipitation Wind Pressure Humidity
    00:00 +20°C° 0 mm 2 mps 655 mmHg 84%
    01:00 +20°C° 0 mm 2 mps 655 mmHg 85%
    02:00 +20°C° 0 mm 2 mps 655 mmHg 85%
    03:00 +20°C° 0 mm 1 mps 654 mmHg 86%
    04:00 +20°C° 0 mm 1 mps 654 mmHg 87%
    05:00 +20°C° 0 mm 1 mps 654 mmHg 88%
    06:00 +21°C° 0 mm 1 mps 655 mmHg 83%
    07:00 +23°C° 0 mm 1 mps 656 mmHg 78%
    08:00 +24°C° 0 mm 2 mps 657 mmHg 72%
    09:00 +26°C° 0 mm 2 mps 657 mmHg 65%
    10:00 +27°C° 0 mm 2 mps 657 mmHg 59%
    11:00 +29°C° 0 mm 3 mps 657 mmHg 52%
    12:00 +29°C° 0 mm 3 mps 656 mmHg 50%
    13:00 +30°C° 0 mm 3 mps 656 mmHg 49%
    14:00 +30°C° 0 mm 3 mps 655 mmHg 47%
    15:00 +29°C° 0.1 mm 2 mps 655 mmHg 54%
    16:00 +28°C° 0.1 mm 2 mps 655 mmHg 61%
    17:00 +27°C° 0.1 mm 1 mps 654 mmHg 68%
    18:00 +25°C° 0.7 mm 1 mps 655 mmHg 76%
    19:00 +23°C° 0.7 mm 1 mps 655 mmHg 85%
    20:00 +21°C° 0.7 mm 1 mps 655 mmHg 94%
    21:00 +20°C° 0.8 mm 1 mps 655 mmHg 94%
    22:00 +20°C° 0.8 mm 1 mps 655 mmHg 93%
    23:00 +20°C° 0.8 mm 1 mps 655 mmHg 93%

    30 May, Saturday

    Time Temperature Precipitation Wind Pressure Humidity
    00:00 +20°C° 0.3 mm 1 mps 654 mmHg 93%
    01:00 +20°C° 0.3 mm 1 mps 654 mmHg 92%
    02:00 +20°C° 0.3 mm 1 mps 654 mmHg 92%
    03:00 +20°C° 0 mm 1 mps 654 mmHg 91%
    04:00 +20°C° 0 mm 1 mps 654 mmHg 90%
    05:00 +20°C° 0 mm 1 mps 654 mmHg 89%
    06:00 +21°C° 0 mm 1 mps 655 mmHg 84%
    07:00 +21°C° 0 mm 1 mps 656 mmHg 79%
    08:00 +22°C° 0 mm 1 mps 656 mmHg 74%
    09:00 +24°C° 0 mm 2 mps 657 mmHg 66%
    10:00 +26°C° 0 mm 3 mps 657 mmHg 58%
    11:00 +28°C° 0 mm 3 mps 657 mmHg 50%
    12:00 +28°C° 0 mm 3 mps 657 mmHg 50%
    13:00 +28°C° 0 mm 2 mps 656 mmHg 50%
    14:00 +29°C° 0 mm 2 mps 655 mmHg 50%
    15:00 +28°C° 0 mm 2 mps 655 mmHg 55%
    16:00 +27°C° 0 mm 1 mps 655 mmHg 60%
    17:00 +26°C° 0 mm 1 mps 654 mmHg 64%
    18:00 +24°C° 0 mm 1 mps 655 mmHg 66%
    19:00 +23°C° 0 mm 1 mps 655 mmHg 67%
    20:00 +21°C° 0 mm 2 mps 655 mmHg 69%
    21:00 +20°C° 0.3 mm 2 mps 655 mmHg 76%
    22:00 +19°C° 0.3 mm 2 mps 655 mmHg 82%
    23:00 +19°C° 0.3 mm 2 mps 655 mmHg 89%

    31 May, Sunday

    Time Temperature Precipitation Wind Pressure Humidity
    00:00 +19°C° 0 mm 2 mps 655 mmHg 88%
    01:00 +20°C° 0 mm 1 mps 655 mmHg 88%
    02:00 +20°C° 0 mm 1 mps 655 mmHg 87%
    03:00 +20°C° 0 mm 1 mps 655 mmHg 86%
    04:00 +20°C° 0 mm 1 mps 655 mmHg 85%
    05:00 +20°C° 0 mm 1 mps 655 mmHg 84%
    06:00 +21°C° 0 mm 1 mps 655 mmHg 82%
    07:00 +21°C° 0 mm 2 mps 656 mmHg 79%
    08:00 +23°C° 0 mm 2 mps 657 mmHg 77%
    09:00 +25°C° 0 mm 2 mps 657 mmHg 67%
    10:00 +26°C° 0 mm 3 mps 657 mmHg 58%
    11:00 +28°C° 0 mm 3 mps 657 mmHg 48%
    12:00 +29°C° 0 mm 3 mps 657 mmHg 46%
    13:00 +29°C° 0 mm 3 mps 656 mmHg 44%
    14:00 +30°C° 0 mm 3 mps 656 mmHg 43%
    15:00 +29°C° 0 mm 2 mps 656 mmHg 48%
    16:00 +28°C° 0 mm 2 mps 656 mmHg 54%
    17:00 +27°C° 0 mm 1 mps 656 mmHg 59%
    18:00 +26°C° 0 mm 2 mps 656 mmHg 65%
    19:00 +24°C° 0 mm 2 mps 655 mmHg 70%
    20:00 +21°C° 0 mm 2 mps 655 mmHg 75%
    21:00 +21°C° 0 mm 2 mps 655 mmHg 76%
    22:00 +21°C° 0 mm 2 mps 656 mmHg 78%
    23:00 +20°C° 0 mm 2 mps 656 mmHg 79%

    1 June, Monday

    Time Temperature Precipitation Wind Pressure Humidity
    00:00 +20°C° 0 mm 2 mps 655 mmHg 79%
    01:00 +20°C° 0 mm 2 mps 655 mmHg 79%
    02:00 +20°C° 0 mm 2 mps 655 mmHg 79%
    03:00 +19°C° 0 mm 2 mps 655 mmHg 80%
    04:00 +19°C° 0 mm 2 mps 655 mmHg 80%
    05:00 +19°C° 0 mm 2 mps 655 mmHg 81%
    06:00 +20°C° 0 mm 2 mps 656 mmHg 74%
    07:00 +21°C° 0 mm 3 mps 657 mmHg 66%
    08:00 +24°C° 0 mm 3 mps 657 mmHg 58%
    09:00 +25°C° 0 mm 3 mps 657 mmHg 54%
    10:00 +27°C° 0 mm 4 mps 657 mmHg 49%
    11:00 +28°C° 0 mm 4 mps 657 mmHg 45%
    12:00 +29°C° 0 mm 3 mps 657 mmHg 44%
    13:00 +29°C° 0 mm 3 mps 656 mmHg 42%
    14:00 +30°C° 0 mm 3 mps 656 mmHg 41%
    15:00 +29°C° 0 mm 2 mps 656 mmHg 46%
    16:00 +28°C° 0 mm 2 mps 655 mmHg 51%
    17:00 +27°C° 0 mm 2 mps 655 mmHg 56%
    18:00 +26°C° 0 mm 2 mps 655 mmHg 60%
    19:00 +24°C° 0 mm 2 mps 655 mmHg 64%
    20:00 +21°C° 0 mm 2 mps 655 mmHg 68%
    21:00 +21°C° 0 mm 2 mps 655 mmHg 72%
    22:00 +21°C° 0 mm 2 mps 655 mmHg 75%
    23:00 +21°C° 0 mm 2 mps 655 mmHg 78%
    Show more